Location: Altnuifra
(48.5143°N, 8.6150°E)
Time: 10:29:49
(UTC+00:00)

Daily predictions for brighter satellites

Satellite Brightness Start Highest point End
(mag) Time Altitude Azimuth Time Altitude Azimuth Time Altitude Azimuth
USA 308 3.5 16:00:28 10° WNW 16:04:31 40° N 16:08:33 10° ENE
Cosmos 2221 3.2 16:00:18 10° SSW 16:04:31 58° WNW 16:08:49 10° N
SL-16 R/B 3.2 16:00:00 10° N 16:04:37 25° NE 16:09:12 10° E
Okean O Rocket 3.4 16:03:01 10° E 16:04:57 13° NE 16:06:54 10° NNE
MOS 1 Rocket 3.9 16:00:41 10° N 16:05:33 61° WNW 16:10:06 10° SSW
CZ-2C R/B 2.8 16:01:40 10° SSE 16:06:27 68° ENE 16:11:11 10° N
Envisat 4.4 16:02:24 10° S 16:07:13 44° W 16:12:06 10° NNW
Cosmos 2082 Rocket 2.6 16:03:07 10° S 16:08:29 45° ESE 16:13:50 10° NE
Sich 1 3.3 16:04:43 10° N 16:08:54 48° ENE 16:13:05 10° SSE
Cosmos 1500 Rocket 3.7 16:04:33 10° N 16:09:00 82° W 16:13:23 10° S
Cosmos 540 Rocket 3.5 16:04:25 10° S 16:09:27 64° ESE 16:14:32 10° NNE
ARGOS 4.4 16:07:20 10° E 16:11:02 19° ENE 16:14:45 10° NNE
FengYun 1-2 T 4.3 16:08:47 10° SSE 16:14:15 61° ENE 16:19:42 10° N
COSMOS 2455 3.0 16:09:03 10° SSW 16:14:58 62° ESE 16:20:56 10° NE
SMAP 3.3 16:12:30 10° SE 16:16:58 48° ENE 16:21:27 10° N
NOAA 6 4.2 16:13:30 10° SE 16:18:28 52° ENE 16:23:26 10° N
Cosmos 1805 Rocket 3.5 16:17:07 10° N 16:21:28 81° E 16:25:48 10° SSE
Cosmos 1833 Rocket 2.9 16:16:08 10° SSW 16:21:45 75° WNW 16:27:26 10° NNE
Cosmos 1933 3.3 16:17:45 10° S 16:21:47 78° E 16:25:49 10° NNE
Cosmos 2278 3.7 16:16:19 10° NNW 16:22:00 63° ENE 16:27:38 10° SE
Cosmos 2333 Rocket 4.0 16:20:40 10° N 16:23:29 14° NNE 16:26:02 11° ENE
Cosmos 1602 3.7 16:20:29 10° N 16:24:22 89° W 16:28:15 10° S
CZ-4B DEB 4.4 16:22:21 10° SE 16:27:38 50° ENE 16:32:56 10° N
USA 305 3.3 16:24:55 10° WNW 16:29:02 46° NNE 16:32:51 12° E
CZ-2C R/B 3.8 16:26:14 10° NE 16:30:04 21° E 16:33:54 10° SE
SL-24 R/B - RUBIN 2 4.2 16:26:56 10° NW 16:31:24 59° WSW 16:35:38 10° SSE
Cosmos 2219 Rocket 4.0 16:29:13 10° N 16:31:33 12° NNE 16:33:20 11° NE
CZ-4B R/B 3.0 16:29:05 10° S 16:33:01 74° WSW 16:36:46 10° NNW
Cosmos 1500 3.0 16:30:53 10° N 16:34:39 78° E 16:38:21 10° SSE
Meteor 1-14 Rocket 4.4 16:29:05 10° N 16:34:52 58° ENE 16:40:43 10° SSE
Cosmos 44 Rocket 3.3 16:31:16 10° NNW 16:36:11 61° NE 16:40:55 10° SE
COSMOS 2406 3.5 16:35:40 10° SW 16:41:24 70° WNW 16:47:08 10° NNE
Cosmos 1814 Rocket 4.1 16:37:13 10° S 16:42:19 58° ESE 16:47:24 10° NNE
Cosmos 921 Rocket 4.0 16:40:06 10° SSE 16:43:38 26° E 16:45:57 17° NE
Cosmos 1570 Rocket 4.1 16:44:04 10° S 16:49:11 58° ESE 16:54:14 10° NNE
MOS 1-B Rocket 4.4 16:45:46 10° NNE 16:51:36 47° E 16:58:15 10° S
CZ-4B R/B 3.4 16:48:39 10° SE 16:53:44 45° ENE 16:58:46 10° N
Cosmos 2298 Rocket 4.2 16:49:41 10° NNW 16:54:54 52° ENE 17:00:06 10° SE
USA 267 3.3 16:50:26 16° ENE 16:55:53 70° SE 17:02:24 10° SW
CZ-2D R/B 3.2 16:52:12 10° SSE 16:55:58 60° ENE 16:59:45 10° N
MOS 1-B 4.3 16:52:52 10° SSE 16:58:34 65° ENE 17:04:19 10° N
Cosmos 1939 Rocket 3.5 16:54:38 10° S 16:58:41 60° W 17:02:42 10° NNW
ATLAS CENTAUR R/B 2.9 16:49:28 10° WSW 16:58:42 67° NW 17:01:31 20° NE
USA 306 3.0 16:57:15 10° WNW 17:01:27 58° NNE 17:03:51 24° E
COSMO-SKYMED 1 3.3 16:59:10 19° NE 17:01:30 32° E 17:05:24 10° SSE
Cosmos 1633 Rocket 2.9 16:57:12 10° N 17:01:36 77° E 17:06:00 10° SSE
Cosmos 1151 Rocket 2.9 16:57:19 10° S 17:01:39 74° E 17:06:02 10° NNE
Cosmos 1666 2.6 16:59:37 10° N 17:03:22 89° W 17:07:04 10° S
Cosmos 1782 3.5 16:59:53 10° SSW 17:03:48 55° WNW 17:07:43 10° N
APEX 3.9 17:00:51 10° S 17:04:02 27° ESE 17:04:23 27° ESE
Meteor 2-6 Rocket 4.3 16:59:08 10° S 17:04:42 57° E 17:10:09 10° NNE
Cosmos 2360 Rocket 2.9 17:00:45 10° NNW 17:05:46 31° NE 17:08:17 22° E
ISS -0.9 17:04:13 10° W 17:06:40 19° SW 17:09:06 10° S
PAYLOAD B 4.2 17:03:01 10° SSE 17:08:38 82° ENE 17:14:15 10° NNW
Cosmos 1900 4.2 17:03:53 10° SSW 17:08:43 74° ESE 17:11:52 22° NE
YAOGAN 1 4.1 17:11:21 18° NNE 17:11:21 18° NNE 17:13:01 10° N
Cosmos 1818 3.7 17:06:13 10° NW 17:11:43 79° SW 17:17:09 10° SSE
CZ-2C R/B 3.8 17:14:53 10° SSW 17:16:42 12° S 17:18:30 10° SSE
Cosmos 2279 Rocket 4.0 17:11:31 10° S 17:17:43 89° ESE 17:23:57 10° N
ATLAS 5 CENTAUR R/B 2.1 17:11:22 10° NW 17:18:35 59° NNE 17:19:39 37° E
Cosmos 841 Rocket 4.4 17:14:15 10° SW 17:19:12 46° WNW 17:24:11 10° NNE
Meteor 2-15 4.4 17:14:06 10° S 17:20:05 61° E 17:26:04 10° NNE
Cosmos 2266 Rocket 4.0 17:14:20 10° N 17:20:42 62° ENE 17:27:03 10° SSE
ERBS 4.0 17:18:37 10° NW 17:20:46 20° N 17:20:46 20° N
USA 307 2.8 17:17:48 10° WNW 17:22:04 67° NNE 17:23:33 38° E
CZ-4C R/B 3.7 17:15:36 10° NW 17:22:43 58° WSW 17:30:58 10° SSE
Lacrosse 5 rocket 2.0 17:21:15 10° WNW 17:25:04 53° SW 17:28:57 11° SSE
SL-08 RB Rocket 3.9 17:20:50 10° SE 17:25:14 45° ENE 17:29:36 10° N
NOSS 3-4 (A) 4.4 17:20:30 10° NW 17:26:30 34° NNE 17:28:52 28° ENE
NOSS 3-4 (C) 4.4 17:20:36 10° NW 17:26:35 34° NNE 17:28:56 28° ENE
Cosmos 2208 Rocket 4.1 17:23:04 10° SSW 17:28:30 85° WNW 17:32:51 17° NNE
Cosmos 1933 Rocket 3.5 17:24:27 10° N 17:28:43 55° ENE 17:32:58 10° SSE
Cosmos 2322 Rocket 2.2 17:23:03 10° NNW 17:28:45 62° ENE 17:34:24 10° SE
ATLAS 2AS CENTAUR R/B 3.9 17:22:38 10° NW 17:28:50 27° NNE 17:31:18 22° NE
COSMOS 2428 4.2 17:25:16 10° N 17:28:44 20° NNE 17:28:44 20° NNE
USA 234 3.4 17:23:46 10° SE 17:30:19 77° SW 17:36:53 10° WNW
Cosmos 2150 Rocket 3.9 17:25:18 10° NNW 17:30:31 90° ENE 17:35:47 10° SSE
Cosmos 1980 Rocket 4.1 17:26:41 10° NW 17:31:36 31° WSW 17:36:27 10° SSW
Cosmos 1328 Rocket 3.7 17:27:17 10° SSW 17:31:44 78° W 17:36:00 11° N
Cosmos 1470 Rocket 3.6 17:30:17 10° N 17:34:47 83° W 17:39:16 10° S
Cosmos 1544 2.9 17:31:15 10° N 17:34:54 82° E 17:38:32 10° S
Cosmos 1125 Rocket 3.5 17:31:28 10° NNW 17:36:45 87° WSW 17:42:02 10° SSE
Cosmos 1867 4.0 17:32:30 10° S 17:37:35 42° ESE 17:38:28 39° E
Cosmos 1812 4.1 17:34:04 10° SW 17:37:40 37° WNW 17:41:17 10° N
X-37B 2.4 17:36:06 10° SW 17:37:49 21° S 17:37:49 21° S
H-2A R/B 2.5 17:33:48 10° S 17:38:51 61° WSW 17:43:50 10° NNW
DEBRIS 4.4 17:37:00 10° S 17:38:35 22° SSE 17:38:35 22° SSE
Okean O Rocket 1.5 17:36:08 10° SSE 17:40:36 86° ENE 17:45:05 10° NNW
Meteor 1-10 Rocket 4.1 17:36:04 10° S 17:41:49 83° E 17:47:11 12° NNE
Meteor 1-11 Rocket 3.6 17:36:16 10° N 17:41:57 80° ENE 17:47:43 10° SSE
GEOS 3 Rocket 4.0 17:41:55 39° NE 17:42:27 40° NE 17:47:17 10° NNW
USA 32 4.0 17:38:43 10° SSE 17:43:49 58° E 17:46:22 29° NNE
ATLAS CENTAUR R/B 4.0 17:42:53 10° NNW 17:44:13 11° N 17:44:14 11° N
USA 308 2.7 17:40:30 10° WNW 17:44:46 84° NNE 17:45:21 65° ESE
SL-16 R/B 2.3 17:43:39 10° NNW 17:49:20 75° WSW 17:54:59 10° SSE
SKYMED 2 3.5 17:47:47 33° NNE 17:49:44 86° WNW 17:54:04 10° SSW
ARGOS 3.2 17:45:17 10° SSE 17:50:42 80° WSW 17:56:08 10° NNW
Cosmos 2237 Rocket 4.3 17:47:59 10° N 17:49:04 12° NNE 17:49:04 12° NNE
Cosmos 2082 Rocket 3.5 17:47:28 10° WSW 17:52:41 36° NW 17:56:57 15° N
deb Chang Zheng 4 4.1 17:51:58 10° S 17:56:13 58° WSW 18:00:29 10° NNW
COSMOS 2455 4.2 17:55:53 10° WSW 18:01:18 34° NW 18:04:54 19° NNE
Feng Yun 1-1 Rocket 4.3 17:59:38 10° SSE 18:05:33 89° ENE 18:11:25 10° NNW
USA 305 3.2 18:04:50 10° WNW 18:08:52 64° SW 18:08:52 64° SW
Cosmos 2333 Rocket 2.8 18:03:46 10° NNW 18:08:05 40° NNE 18:08:05 40° NNE
Cosmos 1356 Rocket 4.2 18:05:21 10° NNW 18:09:27 52° W 18:13:35 10° S
CZ-2C R/B 3.0 18:06:50 17° N 18:10:48 61° WNW 18:15:53 10° SSW
Cosmos 2219 Rocket 3.3 18:11:44 10° NNW 18:15:05 31° N 18:15:05 31° N
Aureole 3 Rocket 3.6 18:13:25 10° SSW 18:18:05 82° W 18:24:47 10° N
Cosmos 921 Rocket 4.5 18:17:55 10° SW 18:21:46 34° WNW 18:22:47 30° NNW
Nadezhda 2 Rocket 4.4 18:17:47 10° N 18:24:15 73° E 18:24:23 73° E
COSMO-SKYMED 1 4.3 18:36:23 26° NW 18:37:37 30° WNW 18:41:23 10° SW
USA 267 3.6 18:37:47 51° NNE 18:38:49 56° NNW 18:45:10 10° W
Meteor 1-27 Rocket 4.4 18:39:38 10° SSW 18:44:59 51° WNW 18:46:30 40° NNW
Cosmos 2360 Rocket 2.7 18:44:33 10° NW 18:50:06 56° WSW 18:50:08 56° WSW
Cosmos 2322 Rocket 4.2 19:07:51 10° NW 19:12:20 24° WSW 19:16:50 10° SSW
NOSS 3-4 (A) 4.3 19:11:16 10° NW 19:16:19 54° NW 19:16:19 54° NW
NOSS 3-4 (C) 4.3 19:11:22 10° NW 19:16:24 54° NW 19:16:24 54° NW
ATLAS 2AS CENTAUR R/B 3.9 19:14:18 10° NW 19:18:44 35° NNW 19:18:44 35° NNW
